Regional Weather Roundup
Issued by NWS

Home | Current Version | Previous Version | Graphics & Text | Print | Product List | Glossary On
Versions: 1 2 3 4 5 6 7 8 9 10 11 12 13 14 15 16 17 18 19 20 21 22 23 24 25 26 27 28 29 30 31 32 33 34 35 36 37 38 39 40 41 42 43 44 45 46 47 48 49 50
937
ASUS43 KFSD 241702
RWRSD

WEATHER ROUNDUP FOR SOUTH DAKOTA
NATIONAL WEATHER SERVICE SIOUX FALLS SD
1100 AM CST TUE JAN 24 2017

NOTE: "FAIR" INDICATES FEW OR NO CLOUDS BELOW 12,000 FEET WITH NO
SIGNIFICANT WEATHER AND/OR OBSTRUCTIONS TO VISIBILITY.


SDZ001>005-009-010-012>017-241800-
NORTHWEST AND NORTH CENTRAL SOUTH DAKOTA

CITY           SKY/WX    TMP DP  RH WIND       PRES   REMARKS
BUFFALO          N/A     24  19  81 N8        29.78R WCI  15
FAITH            N/A     22  19  89 N21       29.82R WCI   6
MOBRIDGE       LGT SNOW  24  18  77 N17       29.83R WCI  11
$$

SDZ012>016-024>037-041>051-057-063-072>074-241800-
SOUTHWEST AND SOUTH CENTRAL SOUTH DAKOTA

CITY           SKY/WX    TMP DP  RH WIND       PRES   REMARKS
RAPID CTY ARPT LGT SNOW  20  18  92 NW22      29.78R FOG     WCI   3
PIERRE         LGT SNOW  28  26  92 NE14      29.78R VSB 1   WCI  17
CUSTER         SNOW      15  10  80 N5        29.64R VSB 1/2 WCI   8
PINE RIDGE     SNOW      22  20  92 N10       29.72R VSB 1/2 WCI  11
SPEARFISH      SNOW      18  18 100 NW5       29.80R VSB 1/2 WCI  11
WINNER         LGT SNOW  30  29  96 NE8       29.72R VSB 3/4 WCI  22
$$

SDZ004>011-016>023-039-040-241800-
NORTHEAST SOUTH DAKOTA

CITY           SKY/WX    TMP DP  RH WIND       PRES   REMARKS
ABERDEEN       LGT SNOW  28  24  85 NE9       29.86S FOG     WCI  19
WATERTOWN      CLOUDY    28  26  92 E13       29.80S WCI  17
BROOKINGS      CLOUDY    29  27  92 E15       29.79S FOG     WCI  18
SISSETON         N/A     31  29  92 NE8       29.86S WCI  23
$$

SDZ017-020-022-023-036>040-048>070-241800-
SOUTHEAST SOUTH DAKOTA

CITY           SKY/WX    TMP DP  RH WIND       PRES   REMARKS
SIOUX FALLS    CLOUDY    32  30  92 E15       29.77F WCI  22
HURON          CLOUDY    31  29  92 E14       29.79S WCI  21
CHAMBERLAIN    LGT SNOW  32  32 100 E8        29.74S WCI  25
MITCHELL       CLOUDY    33  30  88 E12       29.77R WCI  24
YANKTON        CLOUDY    30  27  86 E12G18    29.76R WCI  21
$$

ABBREVIATIONS USED IN REMARKS
   TC - TEMPERATURE IN CELSIUS
  WCI - WIND CHILL INDEX
   HX - HEAT INDEX
  VSB - VISIBILITY





USA.gov is the U.S. government's official web portal to all federal, state and local government web resources and services.